Location: Newark
(47.5833°N, 8.1500°E)
Time: 11:41:27
(UTC+00:00)

Vanguard 2 Rocket - Pass Details

Date: 31 October 2020
Orbit: 553 x 3326 km, 32.9° (Epoch: 04 December)

Event Time Altitude Azimuth Distance (km) Brightness Sun altitude
Rises 19:56:18 0° 242° (WSW) 2,813 9.9 -38.0°
Enters shadow 19:56:57 - 237° (WSW) 2,630 9.6 -38.1°
Reaches altitude 10° 19:59:40 10° 210° (SSW) 2,117 - -38.5°
Maximum altitude 20:01:39 12° 185° (S) 2,115 - -38.8°
Drops below altitude 10° 20:03:56 10° 161° (SSE) 2,498 - -39.2°
Sets 20:08:50 0° 134° (SE) 3,990 - -39.9°
